53,2013-07-17 19:27:12,1374089232,55.20787,-10.10259,3,2,2013-07-17 19:26:00,1374089160,16.69,4,15.8,0,4095,55.202,-10.0746,44,48
54,2013-07-17 20:06:09,1374091569,55.20268,-10.16442,2,2,2013-07-17 20:00:00,1374091200,15.08,9,15.8,30,4095,55.202,-10.0746,44,48
55,2013-07-17 21:06:12,1374095172,55.20787,-10.10259,2,2,2013-07-17 21:00:00,1374094800,15.07,9,15.8,30,0,55.2092,-10.0646,62,40
56,2013-07-17 22:06:09,1374098769,55.23692,-10.11362,3,1,2013-07-17 22:00:00,1374098400,15.02,9,15.8,30,60,55.2092,-10.0646,62,40
57,2013-07-17 23:06:09,1374102369,55.19253,-10.04073,3,1,2013-07-17 23:00:00,1374102000,14.98,10,15.8,30,120,55.2092,-10.0646,62,40
58,2013-07-18 00:06:13,1374105973,55.19253,-10.04073,2,6,2013-07-18 00:00:00,1374105600,14.98,8,15.8,30,0,55.2228,-10.045,110,44
59,2013-07-18 01:06:32,1374109592,55.24723,-9.98976,10,1,2013-07-18 01:00:00,1374109200,15.03,8,15.8,30,60,55.2228,-10.045,110,44
60,2013-07-18 02:06:13,1374113173,55.19766,-9.97886,6,1,2013-07-18 02:00:00,1374112800,15.01,9,15.8,32,120,55.2228,-10.045,110,44
61,2013-07-18 03:06:13,1374116773,55.23692,-10.11362,2,4,2013-07-18 03:00:00,1374116400,15.01,8,15.8,30,0,55.2326,-10.035,32,48
62,2013-07-18 04:06:13,1374120373,55.21303,-10.04073,2,6,2013-07-18 04:00:00,1374120000,15.03,7,15.8,30,60,55.2326,-10.035,32,48
63,2013-07-18 05:06:10,1374123970,55.24723,-9.98976,3,3,2013-07-18 05:00:00,1374123600,15.03,7,15.8,30,120,55.2326,-10.035,32,48
64,2013-07-18 06:06:20,1374127580,55.24723,-9.98976,3,2,2013-07-18 06:00:00,1374127200,15.08,7,15.8,30,0,55.243,-10.0382,50,44
65,2013-07-18 07:06:10,1374131170,55.23692,-10.11362,2,2,2013-07-18 07:00:00,1374130800,15.12,7,15.8,30,60,55.243,-10.0382,50,44
66,2013-07-18 08:06:11,1374134771,55.2574,-10.11362,4,1,2013-07-18 08:00:00,1374134400,15.14,7,15.8,30,120,55.243,-10.0382,50,44
67,2013-07-18 09:06:14,1374138374,55.24209,-10.0517,3,29,2013-07-18 09:00:00,1374138000,15.18,7,15.8,30,0,55.2566,-10.0364,80,44
68,2013-07-18 10:06:22,1374141982,55.25741,-12.75406,190,0,2013-07-18 10:00:00,1374141600,15.2,6,15.8,30,60,55.2566,-10.0364,80,44
69,2013-07-18 11:06:12,1374145572,55.24723,-9.98976,2,3,2013-07-18 11:00:00,1374145200,15.17,7,15.8,30,120,55.2566,-10.0364,80,44
70,2013-07-18 12:06:15,1374149175,55.29101,-10.76663,97,4,2013-07-18 12:00:00,1374148800,15.18,7,15.8,30,0,55.269,-10.0184,62,44
71,2013-07-18 13:06:22,1374152782,55.24209,-10.0517,4,2,2013-07-18 13:00:00,1374152400,15.21,9,15.8,30,60,55.269,-10.0184,62,44
72,2013-07-18 14:06:17,1374156377,55.28126,-10.18663,69,1,2013-07-18 14:00:00,1374156000,15.26,8,15.8,30,120,55.269,-10.0184,62,44
73,2013-07-18 15:06:11,1374159971,55.29164,-10.06269,2,6,2013-07-18 15:00:00,1374159600,15.36,8,15.8,30,0,55.2778,-10.0022,32,48
74,2013-07-18 16:06:10,1374163570,55.29679,-10.00068,80,8,2013-07-18 16:00:00,1374163200,15.43,8,15.8,30,60,55.2778,-10.0022,32,48
75,2013-07-18 17:06:12,1374167172,55.24723,-9.98976,6,2,2013-07-18 17:00:00,1374166800,15.46,8,15.8,30,120,55.2778,-10.0022,32,48
76,2013-07-18 18:06:12,1374170772,55.17588,-6.48591,233,2,2013-07-18 18:00:00,1374170400,15.46,9,15.8,30,0,55.2864,-10.0058,32,48
77,2013-07-18 19:06:15,1374174375,55.29679,-10.00068,5,5,2013-07-18 19:00:00,1374174000,15.42,8,15.8,30,60,55.2864,-10.0058,32,48
78,2013-07-18 20:06:11,1374177971,55.29679,-10.00068,13,7,2013-07-18 20:00:00,1374177600,15.4,7,15.8,30,120,55.2864,-10.0058,32,48
79,2013-07-18 21:06:13,1374181573,55.29679,-10.00068,3,9,2013-07-18 21:00:00,1374181200,15.38,7,15.8,30,0,55.3018,-10.0062,56,44
80,2013-07-18 22:06:13,1374185173,55.29679,-10.00068,6,3,2013-07-18 22:00:00,1374184800,15.42,8,15.8,30,60,55.3018,-10.0062,56,44
81,2013-07-18 23:06:11,1374188771,55.3019,-9.93865,3,8,2013-07-18 23:00:00,1374188400,15.41,6,15.8,30,120,55.3018,-10.0062,56,44
82,2013-07-19 00:06:13,1374192373,55.29679,-10.00068,4,1,2013-07-19 00:00:00,1374192000,15.4,6,15.8,30,0,55.316,-9.99079999999998,56,48
83,2013-07-19 01:06:14,1374195974,55.56581,-5.91267,267,3,2013-07-19 01:00:00,1374195600,15.39,8,15.8,30,60,55.316,-9.99079999999998,56,48
84,2013-07-19 02:06:10,1374199570,55.32589,-10.01163,2,6,2013-07-19 02:00:00,1374199200,15.38,7,15.8,30,120,55.316,-9.99079999999998,56,48
85,2013-07-19 03:06:13,1374203173,55.3019,-9.93865,10,1,2013-07-19 03:00:00,1374202800,15.39,6,15.8,30,0,55.329,-9.97239999999999,50,44
86,2013-07-19 04:06:13,1374206773,55.35145,-9.94954,3,5,2013-07-19 04:00:00,1374206400,15.38,6,15.8,30,60,55.329,-9.97239999999999,50,44
87,2013-07-19 05:06:13,1374210373,55.34632,-10.01163,4,0,2013-07-19 05:00:00,1374210000,15.33,6,15.8,30,120,55.329,-9.97239999999999,50,44
88,2013-07-19 06:06:14,1374213974,55.3019,-9.93865,3,1,2013-07-19 06:00:00,1374213600,15.25,8,15.8,30,0,55.335,-9.96959999999999,110,44
89,2013-07-19 07:06:11,1374217571,55.29679,-10.00068,2,1,2013-07-19 07:00:00,1374217200,15.19,8,15.8,30,60,55.335,-9.96959999999999,110,44
90,2013-07-19 08:06:12,1374221172,55.37544,-10.0226,11,1,2013-07-19 08:00:00,1374220800,15.18,8,15.8,30,120,55.335,-9.96959999999999,110,44
91,2013-07-19 09:06:11,1374224771,55.35145,-9.94954,2,1,2013-07-19 09:00:00,1374224400,15.19,9,15.8,30,0,55.3444,-9.98419999999999,50,44
92,2013-07-19 10:06:23,1374228383,55.25443,-14.96792,325,1,2013-07-19 10:00:00,1374228000,15.18,9,15.8,30,60,55.3444,-9.98419999999999,50,44
93,2013-07-19 11:06:36,1374231996,55.40098,-9.96044,13,2,2013-07-19 11:00:00,1374231600,15.26,8,15.8,30,120,55.3444,-9.98419999999999,50,44
94,2013-07-19 12:06:11,1374235571,55.51872,-12.77619,189,4,2013-07-19 12:00:00,1374235200,15.38,9,15.8,35,0,55.3612,-9.98659999999998,92,44
95,2013-07-19 13:06:15,1374239175,55.37544,-10.0226,1,3,2013-07-19 13:00:00,1374238800,15.52,9,15.8,30,60,55.3612,-9.98659999999998,92,44
96,2013-07-19 14:06:11,1374242771,55.35145,-9.94954,3,2,2013-07-19 14:00:00,1374242400,15.62,8,15.8,30,120,55.3612,-9.98659999999998,92,44
97,2013-07-19 15:06:11,1374246371,55.35145,-9.94954,2,8,2013-07-19 15:00:00,1374246000,15.66,9,15.8,30,180,55.3612,-9.98659999999998,92,44
98,2013-07-19 16:06:11,1374249971,55.3521,-9.18243,83,2,2013-07-19 16:00:00,1374249600,15.7,9,15.8,30,240,55.3612,-9.98659999999998,92,44
99,2013-07-19 17:06:15,1374253575,55.37544,-10.0226,2,3,2013-07-19 17:00:00,1374253200,15.75,9,15.8,30,300,55.3612,-9.98659999999998,92,44
100,2013-07-19 18:06:20,1374257180,55.37071,-8.93326,96,2,2013-07-19 18:00:00,1374256800,15.75,9,15.8,30,0,55.3852,-9.96619999999999,112,36
101,2013-07-19 19:06:14,1374260774,55.39585,-10.0226,3,1,2013-07-19 19:00:00,1374260400,15.7,8,15.8,30,60,55.3852,-9.96619999999999,112,36
102,2013-07-19 20:06:11,1374264371,55.35145,-9.94954,13,7,2013-07-19 20:00:00,1374264000,15.65,9,15.8,30,120,55.3852,-9.96619999999999,112,36
103,2013-07-19 21:06:15,1374267975,55.40098,-9.96044,2,5,2013-07-19 21:00:00,1374267600,15.61,10,15.8,30,0,55.3886,-9.98479999999998,176,44
104,2013-07-19 22:06:14,1374271574,55.35145,-9.94954,4,2,2013-07-19 22:00:00,1374271200,15.58,8,15.8,30,60,55.3886,-9.98479999999998,176,44
105,2013-07-19 23:06:13,1374275173,55.34632,-10.01163,10,5,2013-07-19 23:00:00,1374274800,15.52,8,15.8,30,120,55.3886,-9.98479999999998,176,44
106,2013-07-20 00:06:11,1374278771,55.38057,-9.96044,4,2,2013-07-20 00:00:00,1374278400,15.63,9,15.8,30,0,55.3978,-9.99019999999999,60,48
107,2013-07-20 01:06:14,1374282374,55.53032,-7.62815,165,1,2013-07-20 01:00:00,1374282000,15.64,9,15.8,30,60,55.3978,-9.99019999999999,60,48
108,2013-07-20 02:06:12,1374285972,55.37544,-10.0226,3,1,2013-07-20 02:00:00,1374285600,15.61,8,15.8,30,120,55.3978,-9.99019999999999,60,48
109,2013-07-20 03:06:15,1374289575,55.43011,-9.97137,8,2,2013-07-20 03:00:00,1374289200,15.58,9,15.8,30,0,55.4136,-9.9718,8,44
110,2013-07-20 04:06:14,1374293174,55.40098,-9.96044,2,2,2013-07-20 04:00:00,1374292800,15.55,9,15.8,30,60,55.4136,-9.9718,8,44
111,2013-07-20 05:06:14,1374296774,55.77955,-4.4085,356,5,2013-07-20 05:00:00,1374296400,15.55,8,15.8,30,120,55.4136,-9.9718,8,44
112,2013-07-20 06:06:14,1374300374,55.39585,-10.0226,2,1,2013-07-20 06:00:00,1374300000,15.58,8,15.8,30,0,55.4164,-9.95820000000001,54,48
113,2013-07-20 07:06:14,1374303974,55.45559,-9.90912,12,1,2013-07-20 07:00:00,1374303600,15.6,8,15.8,30,60,55.4164,-9.95820000000001,54,48
114,2013-07-20 08:06:12,1374307572,55.40607,-9.89826,2,3,2013-07-20 08:00:00,1374307200,15.65,7,15.8,30,120,55.4164,-9.95820000000001,54,48
115,2013-07-20 09:06:20,1374311180,55.42497,-10.0336,2,5,2013-07-20 09:00:00,1374310800,15.7,8,15.8,30,0,55.4156,-9.97499999999999,88,48
116,2013-07-20 10:06:37,1374314797,55.40098,-9.96044,6,1,2013-07-20 10:00:00,1374314400,15.82,7,15.8,30,60,55.4156,-9.97499999999999,88,48
117,2013-07-20 11:06:11,1374318371,55.42497,-10.0336,1,4,2013-07-20 11:00:00,1374318000,15.95,8,15.8,35,120,55.4156,-9.97499999999999,88,48
118,2013-07-20 12:06:20,1374321980,55.725,-15.28866,347,2,2013-07-20 12:00:00,1374321600,16.33,6,15.8,30,0,55.4246,-9.9974,78,44
119,2013-07-20 13:06:15,1374325575,55.47963,-9.98233,5,2,2013-07-20 13:00:00,1374325200,16.6,9,15.8,30,60,55.4246,-9.9974,78,44
120,2013-07-20 14:06:11,1374329171,55.60881,-14.23636,10,7,2013-07-20 14:00:00,1374328800,16.63,7,15.8,30,120,55.4246,-9.9974,78,44
121,2013-07-20 15:06:13,1374332773,55.45049,-9.97137,3,2,2013-07-20 15:00:00,1374332400,16.46,7,15.8,30,0,55.4406,-9.99160000000001,30,44
122,2013-07-20 16:06:14,1374336374,55.51005,-11.34719,109,2,2013-07-20 16:00:00,1374336000,16.83,6,15.8,30,60,55.4406,-9.99160000000001,30,44
123,2013-07-20 17:06:12,1374339972,55.47448,-10.04462,2,4,2013-07-20 17:00:00,1374339600,16.95,8,15.8,30,120,55.4406,-9.99160000000001,30,44
124,2013-07-20 18:06:13,1374343573,55.3568,-9.12017,178,2,2013-07-20 18:00:00,1374343200,17.17,7,15.8,30,0,55.4434,-9.9864,30,48
125,2013-07-20 19:06:10,1374347170,55.43011,-9.97137,2,2,2013-07-20 19:00:00,1374346800,17.23,6,15.8,30,60,55.4434,-9.9864,30,48
126,2013-07-20 20:06:11,1374350771,55.37718,-8.42466,119,7,2013-07-20 20:00:00,1374350400,17.05,6,15.8,30,120,55.4434,-9.9864,30,48
127,2013-07-20 21:06:13,1374354373,55.42497,-10.0336,2,5,2013-07-20 21:00:00,1374354000,17.03,7,15.8,30,0,55.4396,-10.0076,12,44
128,2013-07-20 22:06:10,1374357970,55.42497,-10.0336,3,6,2013-07-20 22:00:00,1374357600,17.04,8,15.8,30,60,55.4396,-10.0076,12,44
129,2013-07-20 23:06:11,1374361571,55.43011,-9.97137,2,12,2013-07-20 23:00:00,1374361200,16.95,7,15.8,30,120,55.4396,-10.0076,12,44
130,2013-07-21 00:06:11,1374365171,55.42497,-10.0336,2,7,2013-07-21 00:00:00,1374364800,16.8,11,15.8,30,0,55.4418,-10.0296,32,48
131,2013-07-21 01:06:12,1374368772,55.47963,-9.98233,23,1,2013-07-21 01:00:00,1374368400,16.78,8,15.8,30,60,55.4418,-10.0296,32,48
132,2013-07-21 02:06:11,1374372371,55.43011,-9.97137,2,6,2013-07-21 02:00:00,1374372000,16.73,7,15.8,30,120,55.4418,-10.0296,32,48
133,2013-07-21 03:06:11,1374375971,55.56992,-7.31383,184,4,2013-07-21 03:00:00,1374375600,16.5,9,15.8,30,0,55.4438,-10.0308,12,48
134,2013-07-21 04:06:13,1374379573,55.4198,-10.0958,2,6,2013-07-21 04:00:00,1374379200,16.63,8,15.8,30,60,55.4438,-10.0308,12,48
135,2013-07-21 05:06:18,1374383178,55.43011,-9.97137,3,1,2013-07-21 05:00:00,1374382800,16.61,6,15.8,30,120,55.4438,-10.0308,12,48
136,2013-07-21 06:06:12,1374386772,55.45049,-9.97137,2,1,2013-07-21 06:00:00,1374386400,16.49,6,15.8,30,0,55.445,-10.0316,32,48
137,2013-07-21 07:06:10,1374390370,55.46931,-10.10689,3,6,2013-07-21 07:00:00,1374390000,16.58,7,15.8,30,60,55.445,-10.0316,32,48
138,2013-07-21 08:06:10,1374393970,55.44893,-10.10689,3,0,2013-07-21 08:00:00,1374393600,16.51,7,15.8,30,120,55.445,-10.0316,32,48
139,2013-07-21 09:06:14,1374397574,55.4198,-10.0958,4,10,2013-07-21 09:00:00,1374397200,16.44,6,15.8,30,0,55.441,-10.0502,116,44
140,2013-07-21 10:06:21,1374401181,55.47448,-10.04462,7,2,2013-07-21 10:00:00,1374400800,16.57,8,15.8,30,60,55.441,-10.0502,116,44
141,2013-07-21 11:06:13,1374404773,55.42497,-10.0336,2,6,2013-07-21 11:00:00,1374404400,16.51,8,15.8,30,120,55.441,-10.0502,116,44
142,2013-07-21 12:06:56,1374408416,55.46931,-10.10689,3,2,2013-07-21 12:00:00,1374408000,16.73,7,15.8,30,0,55.4374,-10.0782,62,44
143,2013-07-21 13:06:24,1374411984,55.4198,-10.0958,5,2,2013-07-21 13:00:00,1374411600,16.71,7,15.8,55,60,55.4374,-10.0782,62,44
144,2013-07-21 14:06:10,1374415570,55.42497,-10.0336,4,2,2013-07-21 14:00:00,1374415200,17.03,8,15.8,30,120,55.4374,-10.0782,62,44
145,2013-07-21 15:06:23,1374419183,55.44893,-10.10689,2,2,2013-07-21 15:00:00,1374418800,17.14,9,15.8,30,0,55.4412,-10.0838,62,44
146,2013-07-21 16:06:15,1374422775,55.62455,-14.19039,275,6,2013-07-21 16:00:00,1374422400,17.08,8,15.8,30,60,55.4412,-10.0838,62,44
147,2013-07-21 17:06:11,1374426371,55.4198,-10.0958,7,2,2013-07-21 17:00:00,1374426000,17.03,9,15.8,30,120,55.4412,-10.0838,62,44
148,2013-07-21 18:06:12,1374429972,55.47945,-10.6896,80,3,2013-07-21 18:00:00,1374429600,17.04,8,15.8,30,0,55.4446,-10.0906,116,48
149,2013-07-21 19:06:31,1374433591,55.47448,-10.04462,5,1,2013-07-21 19:00:00,1374433200,17.01,8,15.8,30,60,55.4446,-10.0906,116,48
150,2013-07-21 20:06:12,1374437172,55.47394,-10.75175,475,3,2013-07-21 20:00:00,1374436800,16.97,8,15.8,30,120,55.4446,-10.0906,116,48
151,2013-07-21 21:06:12,1374440772,55.46931,-10.10689,4,5,2013-07-21 21:00:00,1374440400,16.92,7,15.8,30,0,55.4404,-10.113,14,44
152,2013-07-21 22:06:12,1374444372,55.4198,-10.0958,13,9,2013-07-21 22:00:00,1374444000,16.87,9,15.8,30,60,55.4404,-10.113,14,44
153,2013-07-21 23:06:12,1374447972,55.44893,-10.10689,3,6,2013-07-21 23:00:00,1374447600,16.89,8,15.8,30,120,55.4404,-10.113,14,44
154,2013-07-22 00:06:19,1374451579,55.4198,-10.0958,2,1,2013-07-22 00:00:00,1374451200,16.87,11,15.8,30,0,55.4334,-10.144,32,48
155,2013-07-22 01:06:14,1374455174,55.44372,-10.16913,72,2,2013-07-22 01:00:00,1374454800,16.81,7,15.8,30,60,55.4334,-10.144,32,48
156,2013-07-22 02:06:17,1374458777,55.40937,-10.22013,2,1,2013-07-22 02:00:00,1374458400,16.76,9,15.8,30,120,55.4334,-10.144,32,48
157,2013-07-22 03:06:10,1374462370,55.46994,-8.9529,122,9,2013-07-22 03:00:00,1374462000,16.64,7,15.8,30,0,55.4316,-10.164,8,44
158,2013-07-22 04:06:11,1374465971,55.44372,-10.16913,3,1,2013-07-22 04:00:00,1374465600,16.64,7,15.8,30,60,55.4316,-10.164,8,44
159,2013-07-22 05:06:12,1374469572,55.43848,-10.23135,7,5,2013-07-22 05:00:00,1374469200,16.66,8,15.8,30,120,55.4316,-10.164,8,44
160,2013-07-22 06:06:13,1374473173,55.43848,-10.23135,4,1,2013-07-22 06:00:00,1374472800,16.62,9,15.8,30,0,55.432,-10.1872,32,44
161,2013-07-22 07:06:11,1374476771,55.4041,-10.28226,4,0,2013-07-22 07:00:00,1374476400,16.58,7,15.8,30,60,55.432,-10.1872,32,44
162,2013-07-22 08:06:13,1374480373,55.45886,-10.23135,7,1,2013-07-22 08:00:00,1374480000,16.61,9,15.8,30,120,55.432,-10.1872,32,44
163,2013-07-22 09:06:22,1374483982,55.4146,-10.15798,3,0,2013-07-22 09:00:00,1374483600,16.59,7,15.8,30,0,55.4318,-10.223,12,44
164,2013-07-22 10:06:11,1374487571,55.4146,-10.15798,1,1,2013-07-22 10:00:00,1374487200,16.75,7,15.8,30,60,55.4318,-10.223,12,44
165,2013-07-22 11:06:15,1374491175,55.4041,-10.28226,7,2,2013-07-22 11:00:00,1374490800,16.86,8,15.8,30,120,55.4318,-10.223,12,44
166,2013-07-22 12:06:12,1374494772,55.86141,-16.95681,430,2,2013-07-22 12:00:00,1374494400,16.9,8,15.8,30,0,55.427,-10.26,78,44
167,2013-07-22 13:06:14,1374498374,55.4041,-10.28226,5,2,2013-07-22 13:00:00,1374498000,16.97,7,15.8,30,60,55.427,-10.26,78,44
168,2013-07-22 14:06:11,1374501971,55.42791,-10.35571,3,3,2013-07-22 14:00:00,1374501600,16.89,6,15.8,30,120,55.427,-10.26,78,44
169,2013-07-22 15:06:14,1374505574,55.4041,-10.28226,2,4,2013-07-22 15:00:00,1374505200,16.76,7,15.8,30,0,55.422,-10.2926,84,44
170,2013-07-22 16:06:11,1374509171,55.40937,-10.22013,5,3,2013-07-22 16:00:00,1374508800,16.82,8,15.8,30,60,55.422,-10.2926,84,44
171,2013-07-22 17:06:15,1374512775,55.39881,-10.34436,2,4,2013-07-22 17:00:00,1374512400,16.88,8,15.8,30,120,55.422,-10.2926,84,44
172,2013-07-22 18:06:12,1374516372,55.43321,-10.29354,12,3,2013-07-22 18:00:00,1374516000,16.91,8,15.8,30,0,55.4228,-10.3324,30,44
173,2013-07-22 19:06:14,1374519974,55.42791,-10.35571,3,4,2013-07-22 19:00:00,1374519600,16.91,7,15.8,30,60,55.4228,-10.3324,30,44
174,2013-07-22 20:06:28,1374523588,55.39348,-10.40644,80,3,2013-07-22 20:00:00,1374523200,16.92,8,15.8,30,120,55.4228,-10.3324,30,44
175,2013-07-22 21:06:21,1374527181,55.42791,-10.35571,2,3,2013-07-22 21:00:00,1374526800,16.87,8,15.8,30,0,55.4282,-10.3796,22,44
176,2013-07-22 22:06:12,1374530772,55.39881,-10.34436,7,3,2013-07-22 22:00:00,1374530400,16.77,8,15.6,30,60,55.4282,-10.3796,22,44
177,2013-07-22 23:06:14,1374534374,55.39348,-10.40644,7,1,2013-07-22 23:00:00,1374534000,16.79,7,15.6,30,120,55.4282,-10.3796,22,44
178,2013-07-23 00:06:14,1374537974,55.42791,-10.35571,3,3,2013-07-23 00:00:00,1374537600,16.77,8,15.6,30,0,55.4274,-10.4192,48,44
179,2013-07-23 01:06:14,1374541574,55.36376,-11.81718,116,3,2013-07-23 01:00:00,1374541200,16.74,7,15.6,30,60,55.4274,-10.4192,48,44
180,2013-07-23 02:06:14,1374545174,55.38813,-10.4685,3,1,2013-07-23 02:00:00,1374544800,16.72,6,15.6,30,120,55.4274,-10.4192,48,44
181,2013-07-23 03:06:11,1374548771,55.50378,-8.90021,122,2,2013-07-23 03:00:00,1374548400,16.75,6,15.6,30,0,55.4186,-10.4496,30,48
182,2013-07-23 04:06:14,1374552374,55.39348,-10.40644,2,4,2013-07-23 04:00:00,1374552000,16.67,6,15.6,30,60,55.4186,-10.4496,30,48
183,2013-07-23 05:06:15,1374555975,55.49258,-8.6403,135,2,2013-07-23 05:00:00,1374555600,16.6,6,15.6,30,120,55.4186,-10.4496,30,48
184,2013-07-23 06:06:10,1374559570,55.41181,-10.54207,2,7,2013-07-23 06:00:00,1374559200,16.53,6,15.6,30,0,55.4156,-10.4882,30,44
185,2013-07-23 07:06:12,1374563172,55.41181,-10.54207,3,2,2013-07-23 07:00:00,1374562800,16.55,7,15.6,30,60,55.4156,-10.4882,30,44
186,2013-07-23 08:06:11,1374566771,55.41721,-10.47998,1,2,2013-07-23 08:00:00,1374566400,16.69,6,15.6,30,120,55.4156,-10.4882,30,44
187,2013-07-23 09:06:13,1374570373,55.43546,-10.61577,3,7,2013-07-23 09:00:00,1374570000,16.8,7,15.6,30,0,55.4202,-10.538,32,48
188,2013-07-23 10:06:30,1374573990,55.41181,-10.54207,5,0,2013-07-23 10:00:00,1374573600,16.81,6,15.6,30,60,55.4202,-10.538,32,48
189,2013-07-23 11:06:17,1374577577,55.40638,-10.60414,2,15,2013-07-23 11:00:00,1374577200,16.86,8,15.6,30,120,55.4202,-10.538,32,48
190,2013-07-23 12:06:12,1374581172,55.43546,-10.61577,2,2,2013-07-23 12:00:00,1374580800,16.96,7,15.6,30,0,55.4212,-10.5804,62,48
191,2013-07-23 13:06:11,1374584771,55.4409,-10.55364,8,2,2013-07-23 13:00:00,1374584400,16.92,7,15.6,30,60,55.4212,-10.5804,62,48
192,2013-07-23 14:06:10,1374588370,55.41181,-10.54207,4,2,2013-07-23 14:00:00,1374588000,16.88,8,15.6,30,120,55.4212,-10.5804,62,48
193,2013-07-23 15:06:12,1374591972,55.4409,-10.55364,4,5,2013-07-23 15:00:00,1374591600,16.89,9,15.6,30,0,55.4148,-10.6092,62,44
194,2013-07-23 16:06:10,1374595570,55.40093,-10.66619,3,5,2013-07-23 16:00:00,1374595200,16.89,8,15.6,30,60,55.4148,-10.6092,62,44
195,2013-07-23 17:06:15,1374599175,55.42999,-10.67788,2,6,2013-07-23 17:00:00,1374598800,16.91,8,15.6,30,120,55.4148,-10.6092,62,44
196,2013-07-23 18:06:14,1374602774,55.57215,-13.31316,189,6,2013-07-23 18:00:00,1374602400,16.89,7,15.6,30,0,55.4086,-10.6478,32,48
197,2013-07-23 19:06:13,1374606373,55.38052,-10.66619,6,5,2013-07-23 19:00:00,1374606000,16.78,8,15.6,30,60,55.4086,-10.6478,32,48
198,2013-07-23 20:06:10,1374609970,55.50285,-12.63869,141,10,2013-07-23 20:00:00,1374609600,16.9,8,15.6,30,120,55.4086,-10.6478,32,48
199,2013-07-23 21:06:14,1374613574,55.4245,-10.73997,2,6,2013-07-23 21:00:00,1374613200,16.84,9,15.6,30,0,55.4132,-10.7088,92,44
200,2013-07-23 22:06:12,1374617172,55.477,-12.3024,135,10,2013-07-23 22:00:00,1374616800,16.78,8,15.6,30,60,55.4132,-10.7088,92,44
201,2013-07-23 23:06:12,1374620772,55.39544,-10.72821,2,8,2013-07-23 23:00:00,1374620400,16.8,9,15.6,30,120,55.4132,-10.7088,92,44
202,2013-07-24 00:06:13,1374624373,55.38992,-10.7902,2,1,2013-07-24 00:00:00,1374624000,16.88,8,15.6,30,0,55.4202,-10.761,94,44
203,2013-07-24 01:06:38,1374627998,55.41897,-10.80203,3,2,2013-07-24 01:00:00,1374627600,16.87,9,15.6,30,60,55.4202,-10.761,94,44
204,2013-07-24 02:06:12,1374631572,55.4245,-10.73997,2,1,2013-07-24 02:00:00,1374631200,16.86,10,15.6,38,120,55.4202,-10.761,94,44
205,2013-07-24 03:06:12,1374635172,55.36467,-11.49552,80,4,2013-07-24 03:00:00,1374634800,16.82,10,15.6,30,0,55.414,-10.8044,86,44
206,2013-07-24 04:06:13,1374638773,55.41341,-10.86406,2,3,2013-07-24 04:00:00,1374638400,16.69,9,15.6,30,60,55.414,-10.8044,86,44
207,2013-07-24 05:06:15,1374642375,55.41897,-10.80203,3,2,2013-07-24 05:00:00,1374642000,16.69,9,15.6,30,120,55.414,-10.8044,86,44
208,2013-07-24 06:06:14,1374645974,55.41897,-10.80203,2,1,2013-07-24 06:00:00,1374645600,16.72,9,15.6,30,0,55.4142,-10.8568,86,44
209,2013-07-24 07:06:21,1374649581,55.43686,-10.93805,7,1,2013-07-24 07:00:00,1374649200,16.66,10,15.6,30,60,55.4142,-10.8568,86,44
210,2013-07-24 08:06:12,1374653172,55.43686,-10.93805,3,1,2013-07-24 08:00:00,1374652800,16.74,10,15.6,30,120,55.4142,-10.8568,86,44
211,2013-07-24 09:06:15,1374656775,55.40782,-10.92607,8,5,2013-07-24 09:00:00,1374656400,16.67,9,15.6,30,0,55.4256,-10.9142,146,44
212,2013-07-24 10:06:21,1374660381,55.45724,-10.93805,5,1,2013-07-24 10:00:00,1374660000,16.71,11,15.6,30,60,55.4256,-10.9142,146,44
213,2013-07-24 11:06:47,1374664007,55.43686,-10.93805,3,4,2013-07-24 11:00:00,1374663600,16.72,9,15.6,30,120,55.4256,-10.9142,146,44
214,2013-07-24 12:06:13,1374667573,55.48066,-11.01217,4,4,2013-07-24 12:00:00,1374667200,16.71,9,15.6,47,0,55.435,-10.9788,122,44
215,2013-07-24 13:06:13,1374671173,55.4022,-10.98805,5,2,2013-07-24 13:00:00,1374670800,16.64,10,15.6,30,60,55.435,-10.9788,122,44
216,2013-07-24 14:06:13,1374674773,55.43123,-11.00009,2,2,2013-07-24 14:00:00,1374674400,16.66,9,15.6,30,120,55.435,-10.9788,122,44
217,2013-07-24 15:06:11,1374678371,55.39655,-11.05001,4,4,2013-07-24 15:00:00,1374678000,16.69,10,15.6,30,0,55.442,-11.0396,122,44
218,2013-07-24 16:06:14,1374681974,55.77148,-16.03304,329,4,2013-07-24 16:00:00,1374681600,16.67,9,15.6,30,60,55.442,-11.0396,122,44
219,2013-07-24 17:06:17,1374685577,55.42557,-11.06211,9,3,2013-07-24 17:00:00,1374685200,16.76,7,15.6,30,120,55.442,-11.0396,122,44
220,2013-07-24 18:06:11,1374689171,55.68531,-14.86991,249,3,2013-07-24 18:00:00,1374688800,16.77,8,15.6,30,0,55.4558,-11.0876,116,40
221,2013-07-24 19:06:13,1374692773,55.46929,-11.13631,2,9,2013-07-24 19:00:00,1374692400,16.8,8,15.6,30,60,55.4558,-11.0876,116,40
222,2013-07-24 20:06:13,1374696373,55.49834,-11.14854,13,3,2013-07-24 20:00:00,1374696000,16.76,6,15.6,30,120,55.4558,-11.0876,116,40
223,2013-07-24 21:06:19,1374699979,55.49834,-11.14854,4,3,2013-07-24 21:00:00,1374699600,16.72,8,15.6,30,0,55.4778,-11.135,30,48
224,2013-07-24 22:06:14,1374703574,55.46356,-11.19834,2,3,2013-07-24 22:00:00,1374703200,16.66,9,15.6,30,60,55.4778,-11.135,30,48
225,2013-07-24 23:06:11,1374707171,55.49834,-11.14854,3,8,2013-07-24 23:00:00,1374706800,16.64,8,15.6,30,120,55.4778,-11.135,30,48
226,2013-07-25 00:06:19,1374710779,55.49834,-11.14854,2,2,2013-07-25 00:00:00,1374710400,16.61,10,15.6,30,0,55.4982,-11.181,30,44
227,2013-07-25 01:06:13,1374714373,55.41932,-14.37354,213,2,2013-07-25 01:00:00,1374714000,16.65,7,15.6,30,60,55.4982,-11.181,30,44
228,2013-07-25 02:06:14,1374717974,55.49259,-11.21063,2,3,2013-07-25 02:00:00,1374717600,16.59,7,15.6,30,120,55.4982,-11.181,30,44
229,2013-07-25 03:06:11,1374721571,55.38045,-13.11763,149,1,2013-07-25 03:00:00,1374721200,16.6,10,15.6,30,0,55.5124,-11.2156,60,48
230,2013-07-25 04:06:14,1374725174,55.54199,-11.22295,3,1,2013-07-25 04:00:00,1374724800,16.65,8,15.6,30,60,55.5124,-11.2156,60,48
231,2013-07-25 05:06:12,1374728772,55.558,-10.71312,81,7,2013-07-25 05:00:00,1374728400,16.66,6,15.6,30,120,55.5124,-11.2156,60,48
232,2013-07-25 06:06:14,1374732374,55.53621,-11.28509,4,2,2013-07-25 06:00:00,1374732000,16.64,7,15.6,30,0,55.5336,-11.2496,54,44
233,2013-07-25 07:06:14,1374735974,55.56662,-10.26514,93,1,2013-07-25 07:00:00,1374735600,16.64,8,15.6,30,60,55.5336,-11.2496,54,44